Regional Weather Roundup
Issued by NWS

Home | Current Version | Previous Version | Text Only | Print | Product List | Glossary On
Versions: 1 2 3 4 5 6 7 8 9 10 11 12 13 14 15 16 17 18 19 20 21 22 23 24 25 26 27 28 29 30 31 32 33 34 35 36 37 38 39 40 41 42 43 44 45 46 47 48 49 50
000
ASUS43 KLSX 192207
RWRMO

WEATHER SUMMARY FOR MISSOURI
NATIONAL WEATHER SERVICE SPRINGFIELD MO
400 PM CST FRI JAN 19 2018

NOTE: "FAIR" INDICATES FEW OR NO CLOUDS BELOW 12,000 FEET WITH NO
       SIGNIFICANT WEATHER AND/OR OBSTRUCTIONS TO VISIBILITY.
       CURRENT SKY AND/OR WEATHER CONDITIONS ARE NOT AVAILABLE FOR
       CHILLICOTHE AND FARMINGTON.

MOZ001>031-035>038-043-044-053-054-192300-
...NORTHERN AND WESTERN MISSOURI...

CITY           SKY/WX    TMP DP  RH WIND       PRES   REMARKS
KANSAS CTY INT CLOUDY    48  26  42 S20G26    29.79F
KANSAS C DTWN  PTSUNNY   50  26  39 S15G24    29.82S
LEE`S SUMMIT   CLOUDY    48  28  46 S18       29.83F
ST JOSEPH      CLOUDY    46  30  53 S14       29.76F
CHILLICOTHE      N/A     49  27  42 S13       29.80S
KIRKSVILLE     CLOUDY    47  30  51 SW16G24   29.80S

$$
MOZ066>068-077>081-088>096-101>105-192300-
...SOUTHWEST MISSOURI...

CITY           SKY/WX    TMP DP  RH WIND       PRES   REMARKS
SPRINGFIELD    CLOUDY    53  29  39 S13       29.93F
JOPLIN         CLOUDY    52  29  41 S15G23    29.92S
BRANSON        CLOUDY    54  28  37 SW14      29.98F

$$
MOZ032>034-039>042-045>050-055>058-069>072-192300-
...CENTRAL MISSOURI...

CITY           SKY/WX    TMP DP  RH WIND       PRES   REMARKS
COLUMBIA       CLOUDY    52  24  33 S17       29.89S
JEFFERSON CITY CLOUDY    54  25  32 S7        29.91S
ROLLA          CLOUDY    50  24  36 SW16      29.93F
SEDALIA        CLOUDY    53  28  38 SW18G26   29.88F
WHITEMAN AFB   PTSUNNY   52  28  40 SW15      29.82F
WARRENSBURG    SUNNY     50  28  43 S13G20    29.86F
OSAGE BEACH    CLOUDY    52  26  36 S12       29.94R

$$
MOZ051-052-059>065-192300-
...EAST CENTRAL MISSOURI...

CITY           SKY/WX    TMP DP  RH WIND       PRES   REMARKS
ST LOUIS INTL  CLOUDY    56  21  25 SW14      29.91F
SPIRIT OF STL  CLOUDY    55  22  27 SW8       29.91F
ST CHARLES     CLOUDY    54  23  30 SW9       29.91S

$$
MOZ072>076-082>087-097>100-106>115-192300-
...SOUTH CENTRAL AND SOUTHEAST MISSOURI...

CITY           SKY/WX    TMP DP  RH WIND       PRES   REMARKS
CAPE GIRARDEAU FAIR      37  25  61 S15G25    30.09S WCI  28
FARMINGTON     FAIR      50  23  34 SW13      29.98F
POPLAR BLUFF   FAIR      42  28  57 SW15      30.08R
WEST PLAINS    CLOUDY    50  25  37 S8        30.01F

$$



USA.gov is the U.S. government's official web portal to all federal, state and local government web resources and services.